Location: Kra?nica
(53.4833°N, 14.6167°E)
Time: 16:29:21
(UTC+00:00)

Cosmos 839 Rocket - Pass Details

Date: 23 May 2024
Orbit: 964 x 2088 km, 65.9° (Epoch: 12 June)

Event Time Altitude Azimuth Distance (km) Brightness Sun altitude
Rises 01:15:35 0° 317° (NW) 4,425 7.6 -10.2°
Reaches altitude 10° 01:18:41 10° 316° (NW) 3,292 6.9 -9.9°
Maximum altitude 01:26:19 78° 233° (SW) 1,122 4.2 -9.3°
Drops below altitude 10° 01:32:38 10° 148° (SSE) 2,755 6.2 -8.7°
Sets 01:35:02 0° 147° (SSE) 3,661 6.8 -8.5°
